Regional Weather Roundup
Issued by NWS

Home | Current Version | Previous Version | Graphics & Text | Print | Product List | Glossary On
Versions: 1 2 3 4 5 6 7 8 9 10 11 12 13 14 15 16 17 18 19 20 21 22 23 24 25 26 27 28 29 30 31 32 33 34 35 36 37 38 39 40 41 42 43 44 45 46 47 48 49 50
000
ASUS43 KLSX 252010
RWRMO

WEATHER SUMMARY FOR MISSOURI
NATIONAL WEATHER SERVICE SPRINGFIELD MO
300 PM CDT SUN SEP 25 2016

NOTE: "FAIR" INDICATES FEW OR NO CLOUDS BELOW 12,000 FEET WITH NO
       SIGNIFICANT WEATHER AND/OR OBSTRUCTIONS TO VISIBILITY.
       CURRENT SKY AND/OR WEATHER CONDITIONS ARE NOT AVAILABLE FOR
       CHILLICOTHE AND FARMINGTON.

MOZ001>031-035>038-043-044-053-054-252100-
...NORTHERN AND WESTERN MISSOURI...

CITY           SKY/WX    TMP DP  RH WIND       PRES   REMARKS
KANSAS CTY INT CLOUDY    63  54  72 NW7       30.13F
KANSAS C DTWN  CLOUDY    64  55  72 NW7       30.13S
LEE`S SUMMIT   CLOUDY    62  57  83 W9        30.13F
ST JOSEPH      CLOUDY    68  54  60 NW7       30.12F
CHILLICOTHE      N/A     66  56  70 VRB6      30.10F
KIRKSVILLE     CLOUDY    74  65  73 W9        30.05F

$$
MOZ066>068-077>081-088>096-101>105-252100-
...SOUTHWEST MISSOURI...

CITY           SKY/WX    TMP DP  RH WIND       PRES   REMARKS
SPRINGFIELD    LGT RAIN  79  68  69 NW7       30.06F
JOPLIN         CLOUDY    77  68  73 N12       30.09F
BRANSON        PTSUNNY   86  66  51 W8        30.06F

$$
MOZ032>034-039>042-045>050-055>058-069>072-252100-
...CENTRAL MISSOURI...

CITY           SKY/WX    TMP DP  RH WIND       PRES   REMARKS
COLUMBIA       PTSUNNY   81  67  62 NW12      30.05F
JEFFERSON CITY SUNNY     84  67  56 W7        30.03F
ROLLA          MOSUNNY   80  71  74 NW8       30.04F
SEDALIA        CLOUDY    72  62  71 NW15      30.09F
WHITEMAN AFB   CLOUDY    70  67  91 N9        30.08F
OSAGE BEACH    MOSUNNY   82  69  64 W8        30.05F

$$
MOZ051-052-059>065-252100-
...EAST CENTRAL MISSOURI...

CITY           SKY/WX    TMP DP  RH WIND       PRES   REMARKS
ST LOUIS INTL  CLOUDY    90  66  45 W9        30.01F HX  92
SPIRIT OF STL  CLOUDY    88  70  55 SW8       29.99F HX  93
ST CHARLES     PTSUNNY   88  69  53 SW10      29.99F HX  92

$$
MOZ072>076-082>087-097>100-106>115-252100-
...SOUTH CENTRAL AND SOUTHEAST MISSOURI...

CITY           SKY/WX    TMP DP  RH WIND       PRES   REMARKS
CAPE GIRARDEAU SUNNY     89  68  49 S6        30.01F HX  93
FARMINGTON     MOSUNNY   86  71  60 W8        30.04F HX  91
WEST PLAINS    CLOUDY    88  65  46 VRB5      30.07F HX  90

$$



USA.gov is the U.S. government's official web portal to all federal, state and local government web resources and services.